HELLAS-SAT 4 & SGS-1

Last updated on Sat Dec 13 2025 00:02:50 GMT+0000 (Coordinated Universal Time)

1 44034U 19007A 25345.99872112 .00000161 00000+0 00000+0 0 9996 2 44034 0.0678 128.6617 0004392 49.1289 301.7131 1.00272819 25496
UTC large
Height (km)
Speed (km/s)
/
Latitude / Longitude
Inclination (degrees)
Orbital Period (minutes)
Azimuth
Elevation
Range (km)
Doppler Factor

Next 0 passes for location: London (51.5072 / 0.1276)

Sorry there are no passes over London.